Regional Weather Roundup
Issued by NWS

Home | Current Version | Previous Version | Text Only | Print | Product List | Glossary On
Versions: 1 2 3 4 5 6 7 8 9 10 11 12 13 14 15 16 17 18 19 20 21 22 23 24 25 26 27 28 29 30 31 32 33 34 35 36 37 38 39 40 41 42 43 44 45 46 47 48 49 50
000
ASUS45 KREV 311910
RWRNV
NEVADA REGIONAL WEATHER ROUNDUP
NATIONAL WEATHER SERVICE RENO NV
1200 PM PDT TUE MAY 31 2016

NOTE: "FAIR" INDICATES FEW OR NO CLOUDS BELOW 12,000 FEET WITH NO
SIGNIFICANT WEATHER AND/OR OBSTRUCTIONS TO VISIBILITY.

NVZ001-003-004-312000-
WESTERN NEVADA

CITY           SKY/WX    TMP DP  RH WIND       PRES   REMARKS
RENO           MOSUNNY   82  32  16 VRB3      30.09F
CARSON CITY    FAIR      81  27  13 E6        30.13F
MINDEN         FAIR      75  36  23 SW8G16    30.13F
SLIDE MTN        N/A     50  28  43 SE13        N/A
PYRAMID LAKE     N/A     70 N/A N/A N8          N/A
FALLON         PTSUNNY   79  27  14 VRB5      30.08F
LOVELOCK       SUNNY     80  27  14 CALM      30.08F
HAWTHORNE      SUNNY     79  28  15 NW7       30.10F
$$

NVZ002-CAZ072-073-312000-
NORTHERN AND CENTRAL SIERRA

CITY           SKY/WX    TMP DP  RH WIND       PRES   REMARKS
S. LAKE TAHOE  SUNNY     71  34  25 VRB3      30.19S
TRUCKEE        MOSUNNY   73  34  23 S10       30.18
SQUAW VLY 8000 NOT AVBL
SUSANVILLE     SUNNY     79  34  19 NE7       30.10F
MAMMOTH LAKES  FAIR      71  24  17 SE8       30.24S
BRIDGEPORT     FAIR      72  24  16 VRB3      30.19F
$$

NVZ030-031-036-312000-
NORTHERN NEVADA

CITY           SKY/WX    TMP DP  RH WIND       PRES   REMARKS
ELKO           SUNNY     73  32  22 MISG      30.14F
WINNEMUCCA     SUNNY     77  28  16 N10       30.12F
WENDOVER       SUNNY     73  28  19 SE9       30.09F
$$

NVZ035-037-312000-
CENTRAL NEVADA

CITY           SKY/WX    TMP DP  RH WIND       PRES   REMARKS
ELY            SUNNY     69  28  21 NE10      30.17F
EUREKA           N/A     70  28  21 N8        30.17F
$$

NVZ013-014-312000-
SOUTH CENTRAL NEVADA

CITY           SKY/WX    TMP DP  RH WIND       PRES   REMARKS
TONOPAH        SUNNY     80  28  15 NE10G18   30.11F
$$

NVZ017-020-022-312000-
SOUTHERN NEVADA

CITY           SKY/WX    TMP DP  RH WIND       PRES   REMARKS
LAS VEGAS      MOSUNNY   93  33  12 VRB3      29.83F
N. LAS VEGAS   SUNNY     91  36  14 SE9       29.86F
NELLIS AFB     SUNNY     92  37  14 N7        29.83F
HENDERSON      SUNNY     91  38  15 VRB5      29.90F
MERCURY        SUNNY     88  32  13 CALM      29.94F
$$



USA.gov is the U.S. government's official web portal to all federal, state and local government web resources and services.